Probability
0 0 0 0 0 0 0 0 0 0 0 0 0 0 0 0 0 0 0 0 0 0 0 0 0 0 0 0 0 0 0 0 0 0 0 0 0 0
0 0 0 0 0 0 0 0 0 0 0 0 0 0 0 0 0 0 0 0 0 0 0 0 0 0 0 0 0 0 0 0 0 0 0 0 0 0
0 0 0 0 0 0 0 0 0 0 0 0 0 0 0 0 0 0 0 0 0 0 0 0 0 0 0 0 0 0 0 0 0 0 0 0 0 0
0 0 0 0 0 0 0 0 0 0 0 0 0 0 0 0 0 0 0 0 0 0 0 0 0 0 0 0 0 0 0 0 0 0 0 0 0 0
0 0 0 0 0 0 0 0 0 0 0 0 0 0 0 0 0 0 0 0 0 0 0 0 0 0 0 0 0 0 0 0 0 0 0 0 0 0
0 0 0 0 0 0 0 0 0 0 0 0 0 0 0 0 0 0 0 0 0 0 0 0 0 0 0 0 0 0 0 0 0 0 0 0 0 0
0 0 0 0 0 0 0 0 0 0 0 0 0 0 0 0 0 0 0 0 0 0 0 0 0 0 0 0 0 0 0 0 0 0 0 0 0 0
0 0 0 0 0 0 0 0 0 0 0 0 0 0 0 0 0 0 0 0 0 0 0 0 0 0 0 0 0 0 0 0 0 0 0 0 0 0
0 0 0 0 0 0 0 0 0 0 0 0 0 0 0 0 0 0 0 0 0 0 0 0 0 0 0 0 0 0 0 0 0 0 0 0 0 0
0 0 0 0 0 0 0 0 0 0 0 0 0 0 0 0 0 0 0 0 0 0 0 0 0 0 0 0 0 0 0 0 0 0 0 0 0 0
0 0 0 0 0 0 0 0 0 0 0 0 0 0 0 0 0 0 0 0 0 0 0 0 0 0 0 0 0 0 0 0 0 0 0 0 0 0
0 0 0 0 0 0 0 0 0 0 0 0 0 0 0 0 0 0 0 0 0 0 0 0 0 0 0 0 0 0 0 0 0 0 0 0 0 0
0 0 0 0 0 0 0 0 0 0 0 0 0 0 0 0 0 0 0 0 0 0 0 0 0 0 0 0 0 0 0 0 0 0 0 0 0 0
0 0 0 0 0 0 0 0 0 0 0 0 0 0 0 0 0 0 0 0 0 0 0 0 0 0 0 0 0 0 0 0 0 0 0 0 0 0
0 0 0 0 0 0 0 0 0 0 0 0 0 0 0 0 0 0 0 0 0 0 0 0 0 0 0 0 0 0 0 0 0 0 0 0 0 0
0 0 0 0 0 0 0 0 0 0 0 0 0 0 0 0 0 0 0 0 0 0 0 0 0 0 0 0 0 0 0 0 0 0 0 0 0 0
0 0 0 0 0 0 0 0 0 0 0 0 0 0 0 0 0 0 0 0 0 0 0 0 0 0 0 0 0 0 0 0 0 0 0 0 0 0
0 0 0 0 0 0 0 0 0 0 0 0 0 0 0 0 0 0 0 0 0 0 0 0 0 0 0 0 0 0 0 0 0 0 0 0 0 0
0 0 0 0 0 0 0 0 0 0 0 0 0 0 0 0 0 0 0 0 0 0 0 0 0 0 0 0 0 0 0 0 0 0 0 0 0 0
0 0 0 0 0 0 0 0 0 0 0 0 0 0 0 0 0 0 0 0 0 0 0 0 0 0 0 0 0 0 0 0 0 0 0 0 0 0
0 0 0 0 0 0 0 0 0 0 0 0 0 0 0 0 0 0 0 0 0 0 0 0 0 0 0 0 0 0 0 0 0 0 0 0 0 0
0 0 0 0 0 0 0 0 0 0 0 0 0 0 0 0 0 0 0 0 0 0 0 0 0 0 0 0 0 0 0 0 0 0 0 0 0 0
0 0 0 0 0 0 0 0 0 0 0 0 0 0 0 0 0 0 0 0 0 0 0 0 0 0 0 0 0 0 0 0 0 0 0 0 0 0
Height
5675 5676 5677 5677 5678 5678 5679 5679 5681 5682 5683 5683 5682 5681 5680 5681 5681 5681 5682 5683 5683 5684 5685 5686 5688 5690 5691 5693 5695 5697 5699 5701 5703 5706 5708 5711 5713 5715
5662 5663 5663 5664 5664 5664 5665 5665 5666 5667 5669 5670 5669 5668 5667 5667 5667 5667 5668 5669 5669 5670 5671 5673 5675 5676 5678 5679 5681 5684 5686 5688 5690 5693 5695 5698 5701 5703
5648 5648 5649 5650 5650 5650 5650 5651 5651 5652 5653 5656 5654 5654 5654 5653 5653 5653 5653 5654 5655 5656 5657 5659 5660 5662 5664 5666 5668 5670 5672 5674 5676 5679 5682 5685 5687 5690
5633 5633 5634 5634 5635 5635 5635 5636 5636 5636 5638 5640 5640 5640 5639 5639 5639 5639 5639 5639 5640 5641 5642 5644 5646 5647 5649 5651 5653 5655 5657 5660 5662 5665 5668 5671 5674 5675
5617 5618 5618 5618 5619 5619 5620 5620 5620 5620 5621 5623 5625 5624 5624 5623 5623 5624 5624 5624 5625 5626 5627 5629 5630 5632 5634 5636 5638 5640 5642 5645 5647 5650 5652 5655 5658 5660
5600 5601 5601 5602 5602 5603 5603 5604 5604 5604 5605 5606 5607 5608 5608 5608 5607 5608 5608 5609 5610 5610 5611 5613 5614 5616 5618 5620 5623 5625 5627 5629 5631 5634 5636 5639 5641 5644
5583 5584 5584 5584 5585 5585 5586 5587 5587 5588 5588 5589 5590 5591 5592 5591 5591 5591 5591 5592 5593 5594 5595 5597 5599 5601 5602 5604 5606 5608 5611 5613 5615 5618 5620 5623 5625 5628
5566 5566 5566 5567 5567 5568 5569 5569 5570 5571 5571 5572 5573 5573 5574 5574 5573 5573 5573 5575 5578 5579 5578 5581 5582 5584 5586 5588 5590 5592 5595 5597 5599 5601 5604 5606 5609 5612
5549 5549 5549 5549 5549 5550 5551 5552 5552 5552 5553 5554 5555 5556 5556 5557 5556 5556 5556 5556 5559 5560 5560 5564 5565 5567 5569 5571 5573 5575 5578 5580 5583 5585 5587 5590 5592 5595
5531 5531 5531 5531 5531 5532 5533 5534 5534 5535 5535 5535 5537 5538 5537 5537 5537 5537 5538 5539 5541 5542 5542 5545 5548 5549 5552 5554 5556 5558 5560 5563 5566 5568 5571 5573 5576 5578
5513 5513 5512 5513 5514 5514 5515 5516 5517 5517 5516 5517 5518 5518 5518 5518 5518 5518 5519 5519 5522 5525 5525 5526 5530 5531 5534 5537 5539 5541 5543 5545 5548 5551 5553 5556 5558 5561
5497 5496 5495 5495 5495 5495 5496 5497 5498 5499 5499 5499 5499 5500 5500 5500 5499 5499 5499 5500 5502 5506 5508 5508 5511 5512 5515 5520 5521 5523 5525 5527 5530 5533 5536 5538 5541 5543
5479 5479 5478 5477 5477 5477 5478 5479 5480 5480 5480 5480 5481 5481 5482 5482 5481 5481 5481 5481 5484 5488 5490 5489 5492 5493 5495 5501 5504 5505 5507 5509 5512 5515 5518 5521 5523 5526
5462 5461 5461 5460 5460 5460 5461 5461 5462 5462 5462 5463 5463 5464 5464 5464 5464 5463 5463 5464 5465 5468 5470 5470 5473 5475 5477 5481 5485 5488 5489 5492 5494 5498 5501 5503 5506 5508
5444 5444 5443 5443 5443 5444 5444 5444 5444 5445 5445 5446 5447 5447 5447 5447 5446 5446 5446 5446 5447 5450 5451 5452 5454 5457 5459 5463 5467 5470 5472 5474 5477 5480 5483 5486 5489 5492
5427 5427 5427 5427 5427 5427 5427 5427 5428 5428 5429 5429 5430 5430 5430 5430 5430 5430 5430 5430 5431 5433 5434 5435 5436 5438 5441 5444 5448 5451 5454 5457 5460 5463 5466 5469 5472 5474
5411 5411 5411 5411 5411 5411 5412 5412 5412 5412 5413 5413 5413 5414 5414 5414 5414 5414 5413 5413 5414 5417 5418 5418 5418 5420 5422 5426 5430 5434 5437 5440 5443 5446 5448 5452 5456 5458
5396 5396 5397 5397 5396 5396 5396 5396 5396 5397 5397 5397 5397 5398 5398 5398 5398 5398 5398 5399 5400 5401 5402 5403 5403 5403 5405 5409 5414 5417 5420 5424 5427 5429 5431 5435 5439 5442
5382 5382 5382 5382 5381 5381 5381 5381 5381 5381 5381 5381 5382 5382 5383 5383 5383 5384 5384 5384 5385 5387 5388 5388 5388 5388 5390 5394 5400 5401 5404 5408 5410 5412 5414 5417 5422 5426
5369 5369 5368 5368 5367 5367 5366 5366 5366 5366 5366 5367 5367 5367 5368 5368 5368 5369 5370 5370 5371 5372 5373 5374 5374 5374 5376 5379 5383 5387 5387 5390 5393 5396 5398 5400 5404 5407
5357 5356 5355 5354 5354 5353 5352 5352 5352 5352 5352 5352 5353 5353 5353 5354 5354 5355 5356 5357 5357 5358 5359 5361 5361 5361 5360 5362 5365 5371 5373 5374 5376 5378 5381 5383 5386 5389
5345 5344 5343 5342 5341 5340 5339 5339 5339 5338 5338 5338 5338 5339 5339 5339 5340 5341 5341 5342 5343 5344 5345 5346 5346 5345 5346 5347 5350 5354 5357 5359 5360 5361 5364 5367 5369 5373
5333 5332 5331 5330 5329 5328 5327 5327 5326 5326 5325 5325 5325 5325 5325 5326 5326 5327 5327 5328 5329 5330 5330 5331 5331 5331 5332 5333 5335 5338 5341 5343 5345 5346 5349 5351 5353 5356
Wind_Speed
49 48 48 49 49 49 49 49 48 47 47 47 48 48 48 47 48 48 47 47 47 47 48 47 47 46 46 46 46 46 46 46 45 45 45 44 44 45
50 50 50 50 51 50 50 50 50 50 49 48 49 49 49 50 50 50 50 50 50 50 50 50 49 48 48 48 48 49 49 48 48 47 47 46 46 46
52 52 53 53 52 53 53 53 53 52 51 50 50 50 51 51 52 52 52 51 51 52 51 52 51 51 50 50 50 50 51 51 50 50 49 49 48 48
55 55 55 55 55 55 55 55 55 54 54 52 51 52 52 52 52 53 53 53 53 53 52 53 53 53 52 52 51 51 51 52 53 52 51 51 50 49
57 57 57 57 57 57 57 57 57 57 56 55 54 53 53 53 54 54 55 54 55 55 55 54 54 54 54 54 53 52 51 52 53 54 54 53 52 52
57 58 59 59 59 59 59 59 59 58 58 58 56 56 55 55 56 56 56 56 56 57 57 57 56 56 55 55 55 55 54 53 54 54 55 55 55 54
58 59 59 59 59 60 61 60 60 60 60 59 59 58 57 57 57 57 58 58 58 58 58 58 57 57 56 57 56 56 55 54 54 54 54 55 55 55
59 59 60 61 61 61 62 62 61 61 61 61 60 60 58 58 58 58 59 59 59 59 60 59 59 59 59 58 58 57 56 56 55 54 54 54 55 55
60 61 61 61 62 62 62 62 62 62 62 61 61 61 61 60 59 59 59 60 59 60 61 61 61 61 60 60 59 59 59 58 57 56 56 56 56 56
61 61 61 61 61 61 62 63 63 63 63 63 62 61 61 61 61 60 61 61 61 61 62 61 61 62 61 61 60 60 60 60 59 58 57 57 57 58
60 61 61 60 60 61 62 62 63 63 62 62 61 61 61 61 61 62 61 62 62 61 61 62 62 63 63 62 62 61 61 61 61 60 58 58 58 58
59 59 59 58 58 59 60 61 61 62 62 62 61 61 61 61 62 62 62 62 62 61 61 62 62 63 63 62 62 62 62 62 62 61 60 59 59 59
58 58 57 58 58 57 58 58 59 60 60 59 59 59 60 60 60 61 61 61 62 61 61 62 62 63 63 62 62 62 63 62 62 61 61 60 60 59
57 57 57 56 56 56 56 56 56 57 57 57 57 57 57 58 59 59 59 60 61 61 61 61 61 62 62 61 61 61 62 62 62 62 61 61 60 60
55 55 55 54 54 54 55 56 56 56 56 56 55 55 55 56 56 56 56 57 58 58 58 59 60 60 60 60 59 60 60 61 62 61 61 61 61 60
51 51 52 52 52 53 54 55 56 55 55 55 54 53 54 54 54 55 55 55 56 56 56 57 58 59 59 59 58 59 59 60 60 59 59 59 60 60
48 49 49 50 51 51 52 52 53 54 54 53 53 52 52 52 53 53 53 53 54 54 54 55 56 57 57 57 57 57 57 58 58 58 58 59 59 59
47 47 48 49 49 50 50 50 51 51 52 52 51 51 51 50 50 51 51 51 51 51 51 52 53 54 55 56 55 55 55 56 57 57 58 58 58 58
44 44 45 46 47 48 48 48 49 49 49 50 50 50 49 49 49 49 49 49 49 49 50 50 51 52 53 53 53 55 55 55 56 56 57 58 57 57
41 41 42 44 45 45 46 46 46 47 47 48 48 48 48 47 47 47 47 47 47 48 49 50 50 52 53 53 53 53 55 55 56 56 57 57 57 57
39 40 40 41 42 43 43 43 44 44 45 45 46 47 47 46 46 46 46 47 47 47 48 49 50 51 52 53 53 53 53 54 55 55 55 56 56 56
38 38 38 38 38 39 40 40 41 41 42 43 43 44 45 45 45 45 45 46 46 47 47 47 48 50 51 52 51 51 52 52 53 54 54 55 55 54
36 36 36 36 36 36 36 37 38 39 39 40 42 42 42 43 43 43 43 44 45 45 46 46 46 47 48 49 50 50 50 51 51 51 52 52 52 51
Wind_Direction
263 264 264 265 265 265 265 264 264 265 265 265 266 265 266 266 266 264 264 263 263 261 259 258 257 257 257 257 257 256 256 255 255 254 254 255 255 254
263 263 264 265 265 265 265 264 264 265 265 265 266 265 266 267 266 265 264 263 262 261 260 258 258 258 258 258 259 257 257 256 255 254 254 255 255 255
263 263 264 265 266 265 265 265 265 266 266 265 266 266 267 267 266 266 264 263 262 261 260 259 259 258 258 259 259 259 258 256 255 255 255 255 255 256
263 264 264 265 265 265 265 265 265 266 266 266 266 267 267 267 266 266 265 263 262 261 261 260 259 258 258 258 259 259 259 258 256 255 256 256 256 257
264 265 265 265 265 264 265 265 265 265 266 266 266 266 267 267 266 265 264 263 262 261 261 261 260 260 258 258 258 258 258 258 258 257 256 257 257 258
265 265 265 265 265 264 264 264 265 266 266 266 266 266 267 267 267 266 264 263 262 262 261 261 260 260 259 258 257 257 258 259 258 258 257 256 257 257
265 265 265 265 265 265 264 264 265 265 267 267 267 266 267 267 267 266 265 263 262 261 260 259 259 259 259 259 258 258 258 258 259 259 258 257 257 257
265 265 265 265 265 264 264 264 265 266 267 267 267 267 267 268 267 266 265 263 262 261 259 259 259 258 258 259 259 258 257 257 258 258 258 258 257 257
266 266 265 265 265 264 263 264 264 266 267 267 267 267 267 267 266 266 265 263 262 261 260 259 258 258 258 258 259 259 257 257 257 258 258 258 257 257
266 266 265 264 264 263 263 263 264 265 266 267 267 267 266 266 266 265 264 263 262 261 261 260 259 258 257 257 258 258 258 257 257 258 258 258 258 257
267 267 266 265 264 264 264 264 264 265 265 266 267 266 266 266 265 265 264 263 262 261 261 260 259 258 258 257 257 258 258 257 257 257 258 258 258 258
268 268 267 265 264 264 264 264 264 264 265 265 266 266 265 264 265 265 265 263 262 261 261 261 259 259 258 257 257 257 257 258 256 257 258 258 258 258
268 267 266 265 264 264 265 265 264 264 265 265 265 265 264 264 264 265 264 263 262 261 260 260 259 259 259 258 257 257 256 257 257 256 257 258 258 258
267 267 266 265 264 264 264 265 265 265 265 265 266 265 264 264 263 264 263 263 262 261 260 259 259 259 259 258 258 257 256 256 256 256 257 257 258 258
268 267 266 265 264 265 265 265 265 265 266 266 266 265 265 264 264 264 263 263 262 261 260 259 259 259 259 259 258 257 256 255 256 256 256 257 257 257
268 267 266 265 265 265 265 265 265 265 266 267 267 267 266 265 265 265 264 264 263 261 260 260 259 259 259 258 258 256 255 255 255 255 255 256 256 257
269 267 266 266 266 266 265 265 265 265 266 267 267 267 266 266 265 265 264 264 263 262 261 260 260 259 258 257 257 256 255 255 255 255 256 257 257 258
270 269 268 268 268 267 266 266 266 265 265 265 266 266 266 266 265 264 264 263 263 262 261 261 261 260 258 257 256 256 256 256 256 256 257 258 258 259
272 270 269 269 269 268 267 267 266 265 265 265 265 266 266 265 264 264 263 262 262 262 262 262 261 260 259 258 257 257 258 257 257 257 258 258 259 259
272 272 271 270 270 269 268 267 266 265 265 265 265 265 265 265 264 263 263 262 262 262 262 262 261 261 260 259 257 257 258 258 257 257 258 258 258 259
272 273 273 272 271 270 269 267 265 265 265 265 265 265 265 264 264 263 263 263 264 263 263 263 262 262 261 260 259 258 258 258 258 258 258 259 259 259
273 274 274 274 273 271 270 268 267 266 266 266 266 265 265 264 264 263 264 264 264 264 264 263 261 261 261 261 260 259 258 258 259 259 259 260 260 260
275 275 275 275 274 273 272 271 269 269 268 268 267 266 265 264 264 264 265 265 265 264 264 263 262 261 261 261 260 260 259 259 259 259 259 259 259 259